Location: Chamerau
(49.1969°N, 12.7525°E)
Time: 06:29:36
(UTC+00:00)

USA 234 - Pass Details

Date: 18 September 2020
Orbit: 1102 x 1106 km, 123.0° (Epoch: 16 October)

Event Time Altitude Azimuth Distance (km) Brightness Sun altitude
Rises 23:41:13 0° 85° (E) 3,919 6.3 -38.7°
Reaches altitude 10° 23:43:47 10° 80° (E) 2,962 5.7 -38.7°
Maximum altitude 23:49:58 48° 9° (N) 1,421 4.0 -38.4°
Enters shadow 23:50:38 46° 351° (N) 1,448 4.0 -38.4°
Exits shadow 23:54:27 19° 304° (NW) 2,363 5.1 -38.2°
Drops below altitude 10° 23:56:11 10° 298° (WNW) 2,967 5.6 -38.1°
Sets 23:58:45 0° 293° (WNW) 3,926 6.2 -38.0°
